Total_Precipitation_Accumulation
0.24 0.29 0.37 0.52 0.45 0.31 0.18 0.07 0.04 0.06 0.07 0.06 0.05 0.06 0.08 0.11 0.17 0.27 0.24 0.20 0.16 0.19 0.32 0.50 0.58 0.62 0.65 0.60 0.48 0.39 0.40 0.45 0.51 0.54 0.56 0.60 0.57 0.49 0.48 0.48 0.54 0.60 0.70 0.68 0.60 0.51 0.39 0.33 0.27
0.24 0.38 0.59 0.68 0.46 0.26 0.12 0.07 0.06 0.07 0.08 0.09 0.08 0.08 0.11 0.16 0.17 0.18 0.26 0.30 0.25 0.26 0.42 0.50 0.63 0.67 0.69 0.66 0.56 0.49 0.44 0.49 0.55 0.60 0.64 0.69 0.65 0.56 0.59 0.58 0.57 0.61 0.61 0.55 0.48 0.45 0.37 0.27 0.21
0.32 0.52 0.81 0.71 0.43 0.25 0.12 0.07 0.07 0.07 0.08 0.11 0.14 0.15 0.20 0.25 0.21 0.25 0.31 0.38 0.41 0.41 0.52 0.66 0.74 0.77 0.77 0.72 0.67 0.61 0.56 0.58 0.63 0.66 0.74 0.74 0.73 0.70 0.74 0.66 0.58 0.54 0.48 0.44 0.41 0.36 0.32 0.25 0.22
0.48 0.80 0.93 0.69 0.37 0.17 0.12 0.09 0.08 0.10 0.10 0.12 0.19 0.28 0.35 0.31 0.27 0.32 0.39 0.44 0.54 0.58 0.68 0.88 0.98 0.98 0.92 0.83 0.78 0.74 0.69 0.68 0.70 0.73 0.80 0.84 0.85 0.84 0.81 0.67 0.53 0.44 0.39 0.39 0.37 0.30 0.28 0.26 0.22
0.76 1.04 0.93 0.61 0.31 0.15 0.10 0.10 0.11 0.13 0.13 0.14 0.22 0.37 0.50 0.43 0.40 0.49 0.53 0.57 0.67 0.70 0.84 1.06 1.21 1.24 1.10 0.98 0.92 0.90 0.87 0.87 0.85 0.83 0.89 0.98 0.96 0.91 0.84 0.65 0.47 0.39 0.36 0.38 0.37 0.33 0.31 0.30 0.26
1.07 1.09 0.87 0.55 0.26 0.16 0.11 0.12 0.14 0.16 0.17 0.19 0.27 0.44 0.62 0.64 0.68 0.77 0.78 0.75 0.84 0.82 0.96 1.19 1.35 1.31 1.23 1.20 1.12 1.11 1.11 1.05 0.99 0.97 1.06 1.10 1.04 0.93 0.82 0.70 0.55 0.43 0.36 0.36 0.35 0.35 0.34 0.32 0.31
1.13 0.95 0.68 0.42 0.25 0.20 0.15 0.13 0.17 0.19 0.22 0.25 0.28 0.54 0.75 0.93 1.05 1.11 1.15 1.14 1.11 1.11 1.22 1.38 1.41 1.33 1.24 1.18 1.19 1.20 1.26 1.27 1.15 1.05 1.08 1.09 1.02 0.89 0.81 0.65 0.61 0.52 0.45 0.41 0.37 0.35 0.35 0.33 0.32
1.12 1.08 0.66 0.41 0.30 0.24 0.20 0.20 0.18 0.21 0.26 0.29 0.36 0.62 0.85 1.05 1.31 1.53 1.55 1.68 1.61 1.58 1.57 1.59 1.62 1.53 1.35 1.18 1.23 1.24 1.20 1.17 1.19 1.11 0.96 0.89 0.83 0.74 0.72 0.55 0.54 0.53 0.47 0.42 0.39 0.37 0.39 0.35 0.28
1.19 1.24 0.74 0.40 0.33 0.28 0.27 0.29 0.25 0.22 0.31 0.42 0.45 0.60 0.89 1.21 1.59 2.00 2.04 2.13 2.14 2.02 1.98 1.82 1.82 1.74 1.67 1.50 1.37 1.39 1.28 1.17 1.12 1.08 0.91 0.85 0.90 0.79 0.61 0.43 0.41 0.43 0.42 0.40 0.38 0.36 0.35 0.29 0.23
1.29 1.08 0.57 0.32 0.30 0.33 0.34 0.38 0.36 0.34 0.41 0.51 0.63 0.69 1.08 1.57 1.94 2.18 2.25 2.17 2.31 2.22 2.19 2.06 1.96 1.91 1.92 1.69 1.56 1.59 1.43 1.27 1.12 1.00 0.99 0.92 0.91 0.87 0.66 0.51 0.40 0.42 0.40 0.39 0.41 0.42 0.37 0.28 0.22
1.03 0.71 0.47 0.38 0.37 0.40 0.44 0.45 0.47 0.50 0.51 0.53 0.61 0.74 1.11 1.65 2.16 2.28 2.45 2.41 2.44 2.56 2.48 2.33 2.20 2.08 2.07 2.00 1.69 1.63 1.50 1.40 1.29 1.10 1.06 1.03 1.04 0.97 0.85 0.74 0.57 0.52 0.43 0.42 0.43 0.45 0.38 0.31 0.28
0.85 0.57 0.54 0.53 0.48 0.53 0.54 0.53 0.52 0.53 0.52 0.51 0.62 0.73 1.07 1.49 1.95 2.32 2.50 2.60 2.45 2.61 2.68 2.51 2.40 2.29 2.20 2.13 1.93 1.71 1.59 1.43 1.32 1.18 1.04 1.10 1.11 1.00 0.87 0.76 0.65 0.58 0.48 0.45 0.44 0.41 0.35 0.30 0.28
0.76 0.59 0.59 0.62 0.61 0.66 0.68 0.62 0.59 0.54 0.51 0.58 0.80 1.00 1.18 1.41 1.71 2.20 2.55 2.65 2.55 2.50 2.71 2.69 2.57 2.44 2.27 2.20 2.10 1.86 1.62 1.43 1.38 1.37 1.21 1.07 1.01 0.93 0.86 0.74 0.72 0.65 0.56 0.52 0.49 0.45 0.41 0.38 0.34
0.64 0.60 0.66 0.73 0.76 0.76 0.85 0.71 0.69 0.64 0.61 0.77 0.96 1.10 1.32 1.51 1.70 2.09 2.42 2.61 2.49 2.37 2.58 2.70 2.79 2.66 2.42 2.19 2.06 1.96 1.79 1.62 1.57 1.51 1.39 1.27 1.13 1.02 0.91 0.78 0.75 0.70 0.61 0.54 0.53 0.49 0.48 0.44 0.39
0.73 0.79 0.83 0.86 0.84 0.82 0.94 0.94 0.70 0.67 0.77 0.85 0.93 1.09 1.30 1.53 1.82 2.11 2.24 2.48 2.63 2.47 2.54 2.68 2.80 2.87 2.68 2.43 2.22 2.09 1.94 1.77 1.67 1.61 1.62 1.51 1.34 1.18 1.10 0.93 0.79 0.74 0.74 0.70 0.65 0.62 0.52 0.43 0.38
1.14 1.08 1.01 0.86 0.82 0.82 1.06 1.07 0.71 0.67 0.81 0.85 0.92 1.07 1.24 1.44 1.72 2.01 2.22 2.43 2.75 2.77 2.74 2.83 2.79 2.88 2.87 2.71 2.45 2.20 2.06 1.89 1.68 1.51 1.54 1.59 1.48 1.34 1.27 1.20 1.03 0.91 0.88 0.86 0.74 0.63 0.60 0.47 0.38
1.23 1.00 0.81 0.75 0.75 0.83 0.98 0.93 0.78 0.71 0.74 0.84 0.91 1.00 1.22 1.33 1.50 1.75 2.04 2.37 2.71 2.88 2.97 3.08 3.02 2.85 2.87 2.93 2.76 2.42 2.13 1.94 1.79 1.57 1.43 1.48 1.53 1.43 1.31 1.19 1.17 1.17 1.07 0.94 0.84 0.69 0.68 0.61 0.48
0.76 0.60 0.54 0.59 0.60 0.68 0.77 0.75 0.78 0.81 0.79 0.76 0.85 0.88 1.07 1.18 1.24 1.43 1.74 2.19 2.61 2.86 2.91 3.00 3.10 3.13 3.11 3.11 3.08 2.78 2.42 2.09 1.90 1.75 1.59 1.52 1.55 1.54 1.45 1.31 1.24 1.25 1.24 1.15 1.03 0.89 0.79 0.72 0.66
0.60 0.55 0.49 0.39 0.40 0.56 0.64 0.71 0.81 0.86 0.79 0.76 0.84 0.85 0.89 1.00 1.11 1.23 1.47 1.83 2.21 2.67 2.76 2.76 2.83 2.99 3.10 3.11 3.01 2.81 2.49 2.28 2.05 1.88 1.80 1.70 1.63 1.62 1.64 1.49 1.42 1.41 1.38 1.32 1.29 1.22 1.07 0.89 0.84
0.68 0.65 0.55 0.45 0.43 0.58 0.64 0.73 0.73 0.76 0.80 0.77 0.78 0.79 0.77 0.87 1.05 1.17 1.35 1.60 1.79 2.22 2.57 2.61 2.67 2.74 2.80 2.79 2.89 2.93 2.79 2.52 2.30 2.08 1.91 1.78 1.65 1.60 1.62 1.65 1.58 1.47 1.46 1.44 1.41 1.33 1.21 1.09 1.01
0.70 0.57 0.53 0.61 0.63 0.68 0.71 0.77 0.68 0.66 0.72 0.69 0.67 0.71 0.69 0.76 0.97 1.10 1.22 1.49 1.64 1.95 2.34 2.52 2.62 2.71 2.69 2.79 3.09 3.22 3.16 2.83 2.55 2.29 2.03 1.84 1.75 1.71 1.60 1.55 1.58 1.55 1.52 1.49 1.46 1.47 1.48 1.37 1.25
0.76 0.46 0.50 0.66 0.91 0.97 0.75 0.91 0.68 0.64 0.63 0.64 0.64 0.68 0.68 0.72 0.87 0.94 1.04 1.33 1.50 1.69 1.98 2.21 2.51 2.70 2.79 2.87 2.99 2.98 2.76 2.53 2.28 2.21 2.11 2.00 1.89 1.75 1.69 1.64 1.60 1.58 1.55 1.50 1.52 1.53 1.55 1.59 1.49
0.71 0.54 0.62 0.76 1.02 1.05 0.65 0.81 0.68 0.60 0.63 0.67 0.68 0.76 0.78 0.75 0.84 0.96 1.01 1.14 1.26 1.48 1.75 1.87 2.09 2.35 2.52 2.64 2.82 2.90 2.69 2.42 2.25 2.18 2.11 2.02 1.97 1.83 1.71 1.65 1.65 1.63 1.59 1.55 1.55 1.58 1.58 1.61 1.61
0.76 0.93 0.96 0.97 1.37 1.41 0.62 0.67 0.68 0.66 0.67 0.66 0.66 0.73 0.76 0.76 0.85 0.93 0.93 1.01 1.12 1.27 1.56 1.71 1.87 2.04 2.24 2.33 2.53 2.76 2.61 2.35 2.09 2.00 1.95 1.87 1.83 1.74 1.62 1.57 1.56 1.55 1.52 1.48 1.45 1.49 1.53 1.54 1.51
1.16 1.64 1.95 1.81 1.70 1.06 0.47 0.61 0.76 0.66 0.60 0.64 0.71 0.71 0.72 0.73 0.76 0.84 0.88 1.01 1.09 1.20 1.32 1.39 1.51 1.65 1.87 2.03 2.13 2.35 2.41 2.35 2.15 1.92 1.85 1.76 1.67 1.57 1.48 1.45 1.43 1.46 1.44 1.44 1.43 1.42 1.40 1.45 1.47
1.13 1.34 1.57 1.34 0.88 0.56 0.47 0.66 0.72 0.59 0.59 0.63 0.69 0.69 0.65 0.68 0.74 0.74 0.80 0.92 1.05 1.15 1.15 1.12 1.19 1.35 1.48 1.60 1.70 1.87 1.91 2.01 2.06 1.94 1.76 1.66 1.55 1.47 1.44 1.46 1.45 1.47 1.50 1.43 1.42 1.40 1.35 1.36 1.37
1.09 1.10 0.93 1.17 0.81 0.66 0.60 0.61 0.61 0.54 0.57 0.58 0.60 0.64 0.65 0.67 0.68 0.72 0.81 0.87 0.92 1.00 1.00 0.99 1.03 1.13 1.19 1.33 1.42 1.56 1.58 1.59 1.70 1.74 1.71 1.64 1.52 1.43 1.42 1.47 1.45 1.39 1.38 1.34 1.34 1.35 1.27 1.20 1.20
0.93 0.92 1.12 1.58 1.33 0.93 0.62 0.59 0.77 0.65 0.63 0.65 0.62 0.63 0.67 0.66 0.68 0.76 0.87 0.92 0.92 0.95 0.94 0.89 0.93 0.99 1.07 1.16 1.27 1.36 1.39 1.44 1.48 1.50 1.46 1.43 1.39 1.32 1.30 1.34 1.36 1.33 1.28 1.26 1.24 1.20 1.15 1.12 1.05
0.90 1.04 1.19 1.24 1.05 1.03 0.80 0.80 0.79 0.67 0.61 0.60 0.58 0.60 0.62 0.62 0.67 0.77 0.87 0.96 0.95 0.90 0.87 0.85 0.83 0.87 0.95 1.02 1.09 1.16 1.18 1.22 1.31 1.31 1.30 1.27 1.19 1.10 1.09 1.16 1.19 1.15 1.10 1.09 1.10 1.07 1.05 1.05 1.03
0.75 0.81 1.00 1.37 1.02 0.80 0.84 0.87 0.69 0.59 0.53 0.53 0.54 0.54 0.54 0.54 0.60 0.69 0.75 0.79 0.81 0.82 0.85 0.88 0.83 0.83 0.85 0.93 1.02 1.04 1.06 1.04 1.10 1.14 1.17 1.16 1.12 1.03 0.98 1.01 1.06 1.05 1.00 0.98 0.98 0.96 0.95 1.00 1.02